Theta_e
278 278 278 277 277 277 277 277 278 278 278 278 278 278 277 278 278 278 279 279 280 280
278 277 278 277 277 278 277 278 277 277 277 277 277 277 276 277 276 277 278 279 280 279
278 278 278 277 277 277 277 277 277 277 277 277 276 276 275 276 276 276 277 279 278 279
278 278 278 278 278 277 277 277 276 276 276 276 275 275 274 274 275 275 276 277 278 277
279 278 278 277 278 277 276 276 276 276 275 275 274 274 273 273 274 274 275 276 277 276
278 277 277 277 277 277 276 275 275 275 274 273 273 272 273 273 274 275 275 276 275 275
277 277 277 277 277 276 276 274 273 273 272 272 272 272 272 274 274 275 275 275 275 274
278 277 277 276 276 276 275 275 273 272 271 271 271 272 273 274 274 274 274 274 274 274
277 277 276 276 276 275 275 274 274 272 271 269 270 272 274 275 274 274 273 272 272 273
277 276 276 276 275 274 273 273 272 272 271 268 268 271 274 275 274 273 270 270 271 272
276 275 276 274 274 273 273 272 271 269 267 265 265 271 273 274 273 270 269 269 269 269
275 274 274 273 272 272 271 269 268 267 265 263 264 269 272 273 271 270 269 269 269 268
272 273 273 273 271 270 268 268 267 266 265 263 262 267 271 273 271 270 269 268 268 272
271 271 272 271 269 268 266 266 263 263 263 262 261 261 270 273 272 270 270 270 270 271
Wind_Speed
4 2 2 2 1 1 1 2 4 5 5 7 7 7 8 5 6 7 6 8 6 7
5 5 4 4 3 2 1 2 3 4 5 5 6 7 8 6 7 7 7 7 8 7
7 6 5 4 4 4 3 2 3 4 4 5 6 7 7 6 6 8 6 7 9 9
6 6 6 6 5 5 4 3 2 3 4 5 6 7 7 7 7 8 8 8 9 10
5 6 6 6 6 5 5 4 3 2 3 4 5 6 7 7 7 9 9 10 10 11
4 5 7 7 6 6 5 4 3 3 3 3 4 6 6 6 8 8 8 9 10 11
4 5 6 6 6 6 6 5 5 4 3 3 4 6 6 7 8 8 8 9 9 10
4 4 4 5 6 6 7 6 5 5 4 3 4 4 6 7 8 8 8 8 9 9
4 4 5 5 6 7 7 7 6 6 5 5 4 9 11 10 6 7 7 9 9 9
5 5 5 5 5 7 8 7 8 7 6 5 5 10 12 12 6 5 5 7 9 9
5 6 5 5 7 7 5 8 6 5 5 5 5 11 12 12 4 4 6 7 8 9
5 5 6 8 8 6 5 5 5 4 5 5 6 11 12 11 5 6 7 7 8 9
5 7 8 9 7 4 4 6 5 5 5 5 6 11 12 10 5 7 6 6 8 13
7 8 9 6 4 4 5 4 5 5 4 5 5 8 13 13 7 6 7 6 4 6
Wind_Direction
210 204 208 208 223 317 338 341 354 5 5 6 4 4 0 357 358 356 350 346 339 337
209 209 213 209 211 234 257 297 353 354 2 2 2 0 355 352 352 347 344 339 341 335
210 213 212 205 218 219 236 256 325 350 358 1 359 356 354 349 345 347 345 339 334 337
215 214 211 216 218 218 218 233 304 338 346 352 353 350 346 344 342 341 337 338 331 331
220 217 217 220 218 212 217 209 223 271 325 334 339 339 336 335 336 333 334 333 331 329
226 223 227 220 215 212 208 213 225 226 283 310 326 324 323 315 323 322 322 325 328 327
228 225 228 217 209 210 206 207 212 218 241 264 302 312 305 313 313 312 320 322 323 320
250 234 228 211 209 207 207 214 211 211 230 244 278 279 283 292 295 306 312 316 315 314
251 237 224 214 212 208 212 211 209 220 223 230 256 279 294 297 293 301 305 311 311 307
248 246 238 224 218 219 213 202 215 217 213 242 263 282 290 298 293 288 291 295 298 303
256 253 253 227 227 225 202 210 205 204 212 242 262 283 294 295 292 277 276 276 278 284
294 269 251 238 232 218 200 200 197 205 209 230 263 288 292 299 285 282 267 267 270 270
284 266 259 249 228 202 196 207 199 217 220 226 256 283 288 288 277 279 272 256 258 269
280 269 262 248 206 200 197 185 202 224 239 256 246 272 282 282 274 263 274 266 258 255